TimeCST,TemperatureF,Dew PointF,Humidity,Sea Level PressureIn,VisibilityMPH,Wind Direction,Wind SpeedMPH,Gust SpeedMPH,PrecipitationIn,Events,Conditions,WindDirDegrees,DateUTC
12:53 AM,28.9,24.1,82,30.07,6.0,NE,3.5,-,N/A,,Haze,40,2014-03-07 06:53:00
1:53 AM,27.0,24.1,89,30.07,4.0,NNW,3.5,-,N/A,,Clear,340,2014-03-07 07:53:00
2:53 AM,27.0,23.0,85,30.06,4.0,NNW,4.6,-,N/A,,Clear,330,2014-03-07 08:53:00
3:53 AM,27.0,21.9,81,30.06,5.0,Calm,Calm,-,N/A,,Haze,0,2014-03-07 09:53:00
4:53 AM,27.0,24.1,89,30.06,3.0,Calm,Calm,-,N/A,,Clear,0,2014-03-07 10:53:00
5:53 AM,27.0,23.0,85,30.06,3.0,Calm,Calm,-,N/A,,Clear,0,2014-03-07 11:53:00
6:18 AM,27.0,24.1,89,30.04,2.0,ESE,4.6,-,N/A,,Clear,110,2014-03-07 12:18:00
6:53 AM,28.0,24.1,85,30.06,2.0,Calm,Calm,-,N/A,,Clear,0,2014-03-07 12:53:00
7:53 AM,33.1,27.0,78,30.07,2.5,Calm,Calm,-,N/A,,Haze,0,2014-03-07 13:53:00
8:01 AM,33.1,27.0,78,30.06,3.0,Calm,Calm,-,N/A,,Haze,0,2014-03-07 14:01:00
8:53 AM,36.0,28.9,76,30.08,4.0,Calm,Calm,-,N/A,,Haze,0,2014-03-07 14:53:00
9:53 AM,41.0,30.9,67,30.09,4.0,South,3.5,-,N/A,,Haze,180,2014-03-07 15:53:00
10:53 AM,46.0,32.0,58,30.07,5.0,South,6.9,-,N/A,,Haze,190,2014-03-07 16:53:00
11:53 AM,48.0,32.0,54,30.06,6.0,Variable,4.6,-,N/A,,Haze,0,2014-03-07 17:53:00
12:53 PM,50.0,35.1,57,30.02,7.0,SSE,6.9,-,N/A,,Clear,160,2014-03-07 18:53:00
1:53 PM,53.1,34.0,48,30.01,7.0,SSW,9.2,-,N/A,,Clear,200,2014-03-07 19:53:00
2:53 PM,53.1,36.0,52,29.99,7.0,South,10.4,-,N/A,,Clear,190,2014-03-07 20:53:00
3:53 PM,52.0,37.9,59,29.98,6.0,SSW,10.4,-,N/A,,Haze,200,2014-03-07 21:53:00
4:53 PM,48.0,37.0,66,29.98,5.0,SSW,9.2,-,N/A,,Haze,210,2014-03-07 22:53:00
5:53 PM,44.1,36.0,73,29.97,5.0,SSW,6.9,-,N/A,,Haze,200,2014-03-07 23:53:00
6:53 PM,39.9,35.1,83,29.98,5.0,South,8.1,-,N/A,,Haze,170,2014-03-08 00:53:00
7:53 PM,39.0,33.1,79,29.99,4.0,South,4.6,-,N/A,,Haze,180,2014-03-08 01:53:00
8:53 PM,39.0,34.0,82,30.01,3.0,South,3.5,-,N/A,,Haze,190,2014-03-08 02:53:00
9:53 PM,37.0,33.1,86,30.02,3.0,Calm,Calm,-,N/A,,Clear,0,2014-03-08 03:53:00
10:34 PM,35.1,32.0,89,30.01,2.5,South,5.8,-,N/A,,Clear,190,2014-03-08 04:34:00
10:53 PM,35.1,32.0,89,30.01,2.0,South,5.8,-,N/A,,Clear,190,2014-03-08 04:53:00
11:16 PM,36.0,32.0,86,30.00,3.0,SSW,6.9,-,N/A,,Clear,210,2014-03-08 05:16:00
11:53 PM,36.0,30.9,82,30.01,4.0,SSW,3.5,-,N/A,,Haze,200,2014-03-08 05:53:00